STARLINK-31866, 59668

Orbit data source: Space-Track

STARLINK-31866, 59668 is a payload satellite owned by SpaceX/Seattle (US) in LEO that was launched on Mon, 06 May 2024 UTC via an FALCON 9 launch vehicle from the Air Force Eastern Test Range (AFETR). Payload-class satellites include a variety of spacecraft equipped with specific instruments for various scientific and technological missions. These include communications satellites like Starlink; space stations such as the ISS; scientific satellites like the Hubble; Earth observation satellites from companies like Planet Labs, Umbra, and HawkEye 360; GPS; miniature CubeSats for education and research; and military/defense satellites.

Loading next visibility...
Identifier
59668, 2024-084Q
Orbit
LEO
Country
Flag of USUS
Related business
Manufacturer
SpaceX/Seattle
Mission
Operational Commercial Communications
Bus & Motor
STARLINK V2M, Unknown motor
Mass
730 kg wet, ~700 kg dry
Launch date (UTC)
2024-05-06 (2 years ago)
Launch vehicle
FALCON 9
Launch site
Air Force Eastern Test Range (AFETR)
Object type
Payload
Rocket body
Debris
Shape & HBR
Box + 2 Pan, 17.7 m
Radar Cross Section
33.884 m², Large (>1 m²)

Expand to show TLE details & history
Last TLE update: 18 hours ago

TLE from 18 hours ago
0 STARLINK-31866
1 59668U 24084Q   25349.17861308 -.00000006  00000-0  92856-5 0  9991
2 59668  43.0013 151.6728 0000917 261.0887  98.9861 15.27580505 91533
Epoch: 2025-12-15T04:17Z
TLE epoch observation values (Epoch: 2025-12-15T04:17:12.170Z)
Latitude
0.00001°
Longitude
3.2912°
Altitude
482.921 km
Speed
7.626 km/s
True Right ascension
10h 06m 41s
True Declination
0° 00' 00"
Sunlit
Object was in daylight at epoch
Visualization orbit readout
Latitude
Unknown
Longitude
Unknown
Altitude
Unknown
Speed
Unknown
Apparent Right ascension
Unknown
Apparent Declination
Unknown
Sunlit
N/A
Visualization observer readout
Local Sidereal Time
20:27:37
Azimuth
Unknown
Elevation
Unknown
Doppler factor
Unknown
Orbital elements
Apogee altitude
485.622 km
Perigee altitude
484.363 km
Semi-major axis
6,863.13 km
Eccentricity
0.00009
Inclination
43.0013°
RAAN
151.6728°
Arg. of periapsis
261.0887°
True anomaly
98.99648°
Mean anomaly
98.9861°
Eccentric anomaly
98.99129°
Mean motion
3.81733 °/min
Orbital period
94.31 mins
BSTAR
0.0000092856
Loading maneuver chart data...
Computing Atmospheric mass density...
Loading historical data...
Loading historical data...
Loading historical data...
Loading historical data...
Loading historical data...
Loading historical data...
Loading historical data...

Documentation

Showing up to 5 results
|